This is the latest recevied weather packets stored in our database for station/object KO4LCK. If no packets are shown the sender has not sent any weather packets the latest 10 day(s).
| Time | Temp. | Humidity | Pressure | Rain* | Wind** | Luminosity | Snow |
|---|---|---|---|---|---|---|---|
| 1777313625 | 25.56° C | 47% | 1019.9 hPa | 0 mm | - | 811 W/m² | - |
| 1777313323 | 25.56° C | 51% | 1019.9 hPa | 0 mm | - | 811 W/m² | - |
| 1777313019 | 25.56° C | 49% | 1020.1 hPa | 0 mm | - | 808 W/m² | - |
| 1777312715 | 25° C | 50% | 1020 hPa | 0 mm | - | 820 W/m² | - |
| 1777312412 | 25.56° C | 50% | 1020.2 hPa | 0 mm | - | 829 W/m² | - |
| 1777312109 | 25° C | 51% | 1020 hPa | 0 mm | - | 829 W/m² | - |
| 1777311807 | 25° C | 51% | 1020.1 hPa | 0 mm | - | 839 W/m² | - |
| 1777311504 | 24.44° C | 52% | 1020.2 hPa | 0 mm | - | 844 W/m² | - |
| 1777311201 | 24.44° C | 52% | 1020 hPa | 0 mm | - | 832 W/m² | - |
| 1777310899 | 24.44° C | 51% | 1020 hPa | 0 mm | - | 850 W/m² | - |
| 1777310596 | 23.89° C | 52% | 1020 hPa | 0 mm | - | 841 W/m² | - |
| 1777310293 | 23.89° C | 52% | 1020.3 hPa | 0 mm | - | 832 W/m² | - |
| 1777309990 | 23.89° C | 51% | 1020.2 hPa | 0 mm | - | 826 W/m² | - |
| 1777309689 | 23.33° C | 55% | 1020.4 hPa | 0 mm | - | 819 W/m² | - |
| 1777309386 | 23.33° C | 56% | 1020.6 hPa | 0 mm | - | 804 W/m² | - |
| 1777309084 | 23.89° C | 54% | 1020.7 hPa | 0 mm | - | 796 W/m² | - |
| 1777308781 | 23.33° C | 58% | 1020.7 hPa | 0 mm | - | 773 W/m² | - |
| 1777308475 | 22.78° C | 57% | 1020.9 hPa | 0 mm | - | 785 W/m² | - |
| 1777308171 | 22.22° C | 56% | 1020.9 hPa | 0 mm | - | 648 W/m² | - |
| 1777307867 | 22.22° C | 56% | 1020.9 hPa | 0 mm | - | 540 W/m² | - |
| 1777307566 | 22.78° C | 55% | 1021 hPa | 0 mm | - | 392 W/m² | - |
| 1777307262 | 22.78° C | 55% | 1021 hPa | 0 mm | - | 664 W/m² | - |
| 1777306959 | 22.22° C | 56% | 1021.3 hPa | 0 mm | - | 780 W/m² | - |
| 1777306657 | 21.67° C | 57% | 1021.4 hPa | 0 mm | - | 771 W/m² | - |
| 1777306353 | 21.67° C | 58% | 1021.1 hPa | 0 mm | - | 749 W/m² | - |
* Rain latest hour (hover to see other rain measurements)
** Current wind speed in m/s (hover to see current wind gust speed)